KOMPSAT-3A (40536 NORAD) Tracking and Keplerian Element Data

This shows tracking and keplerian element data for the satellite.

Feedback or suggestion? Click here.




ElementValue
Catalog40536
NameKOMPSAT-3A
Epoch Orbit59411
Epoch Day354.26249382
Epoch Year2025
RAAN329.0255
Inclination97.6791
Eccentricity0.0005426
Argument of Perigee110.1178
Mean Anonmoly250.0654
Mean Motion15.44204688
Decay Rate0.00013914
L11 40536U 15014A 25354.26249382 .00013914 00000+0 30493-3 0 9993
L22 40536 97.6791 329.0255 0005426 110.1178 250.0654 15.44204688594115



Live tracking and technical data element details for KOMPSAT-3A (NORAD 40536). KOMPSAT-3A can be tracked NOW for your location showing map with azimuth and elevation plus other details from your city location.







IsCatalogInMostPopularTable: catalog: 40536, numindb: 421
Update: records affected: 1



GetName: 40536 KOMPSAT-3A

Hit Count: updated at: Tue, 20 Jan 2026 19:41:51 GMT